STARLINK-5344, 55494

Orbit data source: Space-Track

STARLINK-5344, 55494 is a payload satellite owned by SpaceX/Seattle (US) in LEO that was launched on Thu, 02 Feb 2023 UTC via an FALCON 9 launch vehicle from the Air Force Eastern Test Range (AFETR). Payload-class satellites include a variety of spacecraft equipped with specific instruments for various scientific and technological missions. These include communications satellites like Starlink; space stations such as the ISS; scientific satellites like the Hubble; Earth observation satellites from companies like Planet Labs, Umbra, and HawkEye 360; GPS; miniature CubeSats for education and research; and military/defense satellites.

Loading next visibility...
Identifier
55494, 2023-015AX
Orbit
LEO
Country
Flag of USUS
Related business
Manufacturer
SpaceX/Seattle
Mission
Operational Commercial Communications
Bus & Motor
STARLINK, Unknown motor
Mass
305 kg wet, ~290 kg dry
Launch date (UTC)
2023-02-02 (3 years ago)
Launch vehicle
FALCON 9
Launch site
Air Force Eastern Test Range (AFETR)
Object type
Payload
Rocket body
Debris
Shape & HBR
Box + 1 Pan, 10.1 m
Radar Cross Section
13.562 m², Large (>1 m²)

Expand to show TLE details & history
Last TLE update: 9 hours ago

TLE from 9 hours ago
0 STARLINK-5344
1 55494U 23015AX  25288.60940001  .00000944  00000-0  84915-4 0  9991
2 55494  43.0052  46.9984 0001227 271.7821  88.2880 15.02538895148781
Epoch: 2025-10-15T14:37Z
TLE epoch observation values (Epoch: 2025-10-15T14:37:32.160Z)
Latitude
-0.00009°
Longitude
163.23328°
Altitude
558.824 km
Speed
7.584 km/s
True Right ascension
03h 07m 59s
True Declination
0° 00' 00"
Sunlit
Object was in full shadow at epoch
Visualization orbit readout
Latitude
Unknown
Longitude
Unknown
Altitude
Unknown
Speed
Unknown
Apparent Right ascension
Unknown
Apparent Declination
Unknown
Sunlit
N/A
Visualization observer readout
Local Sidereal Time
18:43:02
Azimuth
Unknown
Elevation
Unknown
Doppler factor
Unknown
Orbital elements
Apogee altitude
561.845 km
Perigee altitude
560.142 km
Semi-major axis
6,939.131 km
Eccentricity
0.00012
Inclination
43.0052°
RAAN
46.9984°
Arg. of periapsis
271.7821°
True anomaly
88.30205°
Mean anomaly
88.288°
Eccentric anomaly
88.29503°
Mean motion
3.75479 °/min
Orbital period
95.88 mins
BSTAR
0.000084915
Loading maneuver chart data...
Computing Atmospheric mass density...
Loading historical data...
Loading historical data...
Loading historical data...
Loading historical data...
Loading historical data...
Loading historical data...
Loading historical data...

Documentation

Showing up to 5 results
|